This is the latest recevied weather packets stored in our database for station/object WB4FAY-4. If no packets are shown the sender has not sent any weather packets the latest 1 day(s).
| Time | Temp. | Humidity | Pressure | Rain* | Wind** | Luminosity | Snow |
|---|---|---|---|---|---|---|---|
| 1777996218 | 21.67° C | 62% | 1015.9 hPa | 0 mm | 0.45 m/s, 210° | - | - |
| 1777995918 | 21.11° C | 62% | 1015.9 hPa | 0 mm | 3.13 m/s, 239° | - | - |
| 1777995618 | 21.11° C | 63% | 1016 hPa | 0 mm | 0 m/s | - | - |
| 1777995318 | 21.11° C | 64% | 1016.1 hPa | 0 mm | 1.79 m/s, 251° | - | - |
| 1777995017 | 20.56° C | 63% | 1016.1 hPa | 0 mm | 0.89 m/s, 182° | - | - |
| 1777994718 | 21.11° C | 65% | 1016.3 hPa | 0 mm | 0 m/s | - | - |
| 1777994417 | 20.56° C | 66% | 1016.3 hPa | 0 mm | 1.34 m/s, 254° | - | - |
| 1777994118 | 20.56° C | 65% | 1016.2 hPa | 0 mm | 0 m/s | - | - |
| 1777993817 | 20.56° C | 67% | 1016.2 hPa | 0 mm | 1.79 m/s, 250° | - | - |
| 1777993517 | 20.56° C | 66% | 1016.2 hPa | 0 mm | 1.34 m/s, 302° | - | - |
| 1777993217 | 20° C | 69% | 1016.2 hPa | 0 mm | 0.89 m/s, 335° | - | - |
| 1777992918 | 20° C | 69% | 1016.1 hPa | 0 mm | 0.89 m/s, 333° | - | - |
| 1777992617 | 20° C | 70% | 1016.2 hPa | 0 mm | 0 m/s | - | - |
| 1777992317 | 19.44° C | 69% | 1016.3 hPa | 0 mm | 0.89 m/s, 285° | - | - |
| 1777992017 | 19.44° C | 70% | 1016.2 hPa | 0 mm | 0.89 m/s, 263° | - | - |
| 1777991717 | 19.44° C | 70% | 1016.3 hPa | 0 mm | 0.45 m/s, 213° | - | - |
| 1777991417 | 18.89° C | 71% | 1016.3 hPa | 0 mm | 0.45 m/s, 178° | - | - |
| 1777991118 | 18.89° C | 72% | 1016.3 hPa | 0 mm | 1.34 m/s, 304° | - | - |
| 1777990817 | 18.89° C | 71% | 1016.3 hPa | 0 mm | 1.34 m/s, 271° | - | - |
| 1777990517 | 18.33° C | 71% | 1016.2 hPa | 0 mm | 0.89 m/s, 196° | - | - |
| 1777990217 | 18.33° C | 71% | 1016.3 hPa | 0 mm | 1.79 m/s, 193° | - | - |
| 1777989917 | 18.33° C | 73% | 1016.4 hPa | 0 mm | 1.34 m/s, 206° | - | - |
| 1777989617 | 18.33° C | 73% | 1016.3 hPa | 0 mm | 1.79 m/s, 208° | - | - |
| 1777989317 | 17.78° C | 73% | 1016.1 hPa | 0 mm | 2.24 m/s, 192° | - | - |
| 1777989017 | 17.78° C | 76% | 1016.1 hPa | 0 mm | 1.34 m/s, 199° | - | - |
* Rain latest 24 hours (hover to see other rain measurements)
** Current wind speed in m/s (hover to see current wind gust speed)